Regional Weather Roundup
Issued by NWS

Home | Current Version | Previous Version | Text Only | Print | Product List | Glossary Off
Versions: 1 2 3 4 5 6 7 8 9 10 11 12 13 14 15 16 17 18 19 20 21 22 23 24 25 26 27 28 29 30 31 32 33 34 35 36 37 38 39 40 41 42 43 44 45 46 47 48 49 50

000
ASUS45 KABQ 230801
RWRNM
NEW MEXICO REGIONAL WEATHER ROUNDUP
NATIONAL WEATHER SERVICE ALBUQUERQUE NM
200 AM MDT SAT MAY 23 2015

NOTE: "FAIR" MEANS FEW OR NO CLOUDS BELOW 12,000 FEET AGL WITH NO
       SIGNIFICANT WEATHER OR OBSTRUCTIONS TO VISION.

      THIS PRODUCT IS RELEASED AS TWO VERSIONS.  ONE VERSION NEAR
      THE TOP OF THE HOUR CONTAINING PRELIMINARY DATA FROM ALBUQUERQUE
      AND OTHER STATIONS.  A FINAL VERSION WITH ADDITIONAL DATA IS
      ISSUED ABOUT 10 MINUTES AFTER THE HOUR.

NMZ501-503-504-510>518-230900-
NORTHWEST PLATEAU/NORTHCENTRAL MOUNTAINS

CITY           SKY/WX    TMP DP  RH WIND       PRES   REMARKS
FARMINGTON     PTCLDY    52  30  43 W12       30.01R
SANTA FE       PTCLDY    54  50  86 SE13      29.99F
TAOS           PTCLDY    45  34  65 NE3       30.05F

$$
NMZ402-403-502-505>509-230900-
WESTCENTRAL MOUNTAINS/SOUTHWEST MOUNTAINS

CITY           SKY/WX    TMP DP  RH WIND       PRES   REMARKS
GALLUP         CLEAR     42  25  50 CALM      30.07R
GRANTS         CLOUDY    47  28  48 NW12      30.08S
SILVER CITY    CLEAR     54  21  28 NW15      30.04S

$$
NMZ407-409-411-412-230900-
SOUTHERN DESERTS

CITY           SKY/WX    TMP DP  RH WIND       PRES   REMARKS
DEMING         CLEAR     59  23  25 W10       29.99R
HOLLOMAN AFB   PTCLDY    64  45  49 SE5       29.94R
ALAMOGORDO     PTCLDY    66  41  39 S10       29.96R
T OR C         CLEAR     62  23  22 CALM      29.95R

$$
NMZ519>523-230900-
CENTRAL VALLEYS/CENTRAL HIGHLANDS

CITY           SKY/WX    TMP DP  RH WIND       PRES   REMARKS
ALBUQUERQUE    PTCLDY    59  27  29 W9        29.98S
DOUBLE EAGLE   MOCLDY    54  33  44 NW10      30.00F
CLINES CORNERS PTCLDY    51  47  86 SW12      30.02F
BELEN          FAIR      51  23  33 S3        29.98S
SOCORRO        NOT AVBL

$$
NMZ524>526-539-540-230900-
SOUTHCENTRAL MOUNTAINS

CITY           SKY/WX    TMP DP  RH WIND       PRES   REMARKS
RUIDOSO        NOT AVBL

$$
NMZ527>531-230900-
NORTHEAST HIGHLANDS/NORTHEAST PLAINS

CITY           SKY/WX    TMP DP  RH WIND       PRES   REMARKS
LAS VEGAS      CLOUDY    53  51  93 S12       30.05F
RATON          CLOUDY    50  50 100 S6        30.04F THUNDER
CLAYTON        CLOUDY    56  53  90 S15       30.02F

$$
NMZ532>537-230900-
EASTCENTRAL PLAINS

CITY           SKY/WX    TMP DP  RH WIND       PRES   REMARKS
TUCUMCARI      TSTM      57  50  77 SE18G33   29.95F
CANNON AFB     LGT RAIN  61  61 100 S15       30.00S FOG
CLOVIS AIRPORT CLOUDY    61  57  88 SE18G25   29.99F

$$
NMZ028-029-538-230900-
SOUTHEAST PLAINS

CITY           SKY/WX    TMP DP  RH WIND       PRES   REMARKS
ROSWELL        CLOUDY    67  62  84 S12       29.94F
ARTESIA        MOCLDY    66  66 100 S14       29.94F
CARLSBAD       CLOUDY    68  65  90 S12       29.91F
HOBBS          CLOUDY    64  64 100 SE21      29.97F


$$


USA.gov is the U.S. government's official web portal to all federal, state and local government web resources and services.